Walhalla, ND

6:14 PM CDT on April 25, 2017 (GMT -0500)
Walhalla

Weather History for K96D - December, 2013

Change the Weather History Date:

Monday, December 23, 2013

  Actual Average (KGAF) Record (KGAF)
Temperature  
Mean Temperature -14 °F -  
Max Temperature -4 °F 15 °F 42 °F (1963)
Min Temperature -23 °F -1 °F -32 °F (1983)
Degree Days  
Heating Degree Days 78    
Moisture  
Dew Point -20 °F    
Average Humidity 72    
Maximum Humidity 77    
Minimum Humidity 60    
Precipitation  
Precipitation 0.00 in - - ()
Sea Level Pressure  
Sea Level Pressure 30.47 in    
Wind  
Wind Speed 5 mph (SSW)    
Max Wind Speed 15 mph    
Max Gust Speed -    
Visibility 10 miles    
Events      
Averages and records for this station are not official NWS values.
T = Trace of Precipitation, MM = Missing Value Source: NWS Daily Summary

Daily Weather History Graph

Daily Weather History Graph

Search for Another Location

Airport or City:

Trip Planner

Search our weather history database for the weather conditions in past years. The results will help you decide how hot, cold, wet, or windy it might be!

Date:

Astronomy

Dec. 23, 2013 Rise Set
Actual Time 8:23 AM CST 4:38 PM CST
Civil Twilight 7:46 AM CST 5:15 PM CST
Nautical Twilight 7:05 AM CST 5:56 PM CST
Astronomical Twilight 6:27 AM CST 6:34 PM CST
Moon 11:19 PM CST (12/23) 11:21 AM CST (12/23)
Length of Visible Light 9h 29m
Length of Day
8h 14m
Waning Gibbous, 68% of the Moon is Illuminated
Dec 23
Waning Gibbous
Dec 25
Last Quarter
Jan 1
New
Jan 7
First Quarter
Jan 15
Full

Hourly Weather History & Observations

Time (CST) Temp. Windchill Dew Point Humidity Pressure Visibility Wind Dir Wind Speed Gust Speed Precip Events Conditions
12:15 AM -16.6 °F -32.9 °F -25.6 °F 64% 30.51 in 10.0 mi NNW 6.9 mph - N/A   Partly Cloudy
12:35 AM -16.6 °F -34.4 °F -25.6 °F 64% 30.51 in 10.0 mi NW 8.1 mph - N/A   Partly Cloudy
12:55 AM -16.6 °F -32.9 °F -23.8 °F 70% 30.52 in 10.0 mi NW 6.9 mph - N/A   Clear
1:15 AM -16.6 °F -36.8 °F -22.0 °F 76% 30.52 in 10.0 mi NW 10.4 mph - N/A   Clear
1:35 AM -16.6 °F -32.9 °F -22.0 °F 76% 30.53 in 10.0 mi NW 6.9 mph - N/A   Clear
1:55 AM -16.6 °F -34.4 °F -22.0 °F 76% 30.52 in 10.0 mi NW 8.1 mph - N/A   Clear
2:15 AM -14.8 °F -24.8 °F -22.0 °F 70% 30.53 in 10.0 mi NW 3.5 mph - N/A   Clear
2:35 AM -16.6 °F -26.8 °F -22.0 °F 76% 30.53 in - WNW 3.5 mph - N/A   Clear
2:55 AM -16.6 °F - -22.0 °F 76% 30.54 in - Calm Calm - N/A   Clear
3:15 AM -14.8 °F -24.8 °F -20.2 °F 77% 30.54 in - WNW 3.5 mph - N/A   Clear
3:35 AM -16.6 °F -29.3 °F -22.0 °F 76% 30.54 in 10.0 mi WNW 4.6 mph - N/A   Clear
3:55 AM -14.8 °F -30.8 °F -20.2 °F 77% 30.54 in - WNW 6.9 mph - N/A   Partly Cloudy
4:15 AM -16.6 °F -31.3 °F -22.0 °F 76% 30.54 in - West 5.8 mph - N/A   Clear
4:35 AM -16.6 °F -31.3 °F -22.0 °F 76% 30.54 in - West 5.8 mph - N/A   Partly Cloudy
4:55 AM -16.6 °F -29.3 °F -22.0 °F 76% 30.54 in - West 4.6 mph - N/A   Clear
5:15 AM -16.6 °F -32.9 °F -22.0 °F 76% 30.54 in - West 6.9 mph - N/A   Clear
5:35 AM -16.6 °F -31.3 °F -22.0 °F 76% 30.54 in - West 5.8 mph - N/A   Clear
5:55 AM -20.2 °F - -27.4 °F 69% 30.55 in - Calm Calm - N/A   Clear
6:15 AM -22.0 °F - -27.4 °F 76% 30.55 in - Calm Calm - N/A   Clear
6:35 AM -22.0 °F - -27.4 °F 76% 30.55 in - Calm Calm - N/A   Clear
6:55 AM -22.0 °F - -27.4 °F 76% 30.56 in - Calm Calm - N/A   Clear
7:15 AM -23.8 °F -35.0 °F -29.2 °F 76% 30.56 in - WSW 3.5 mph - N/A   Clear
7:35 AM -23.8 °F - -29.2 °F 76% 30.56 in - Calm Calm - N/A   Clear
7:55 AM -23.8 °F -35.0 °F -29.2 °F 76% 30.56 in - SSW 3.5 mph - N/A   Clear
8:15 AM -22.0 °F - -27.4 °F 76% 30.56 in - Calm Calm - N/A   Clear
8:35 AM -22.0 °F -33.0 °F -29.2 °F 69% 30.56 in - South 3.5 mph - N/A   Clear
8:55 AM -22.0 °F -35.6 °F -27.4 °F 76% 30.57 in - SW 4.6 mph - N/A   Clear
9:15 AM -22.0 °F -33.0 °F -27.4 °F 76% 30.57 in - West 3.5 mph - N/A   Clear
9:35 AM -20.2 °F -33.5 °F -25.6 °F 76% 30.57 in - WSW 4.6 mph - N/A   Clear
9:55 AM -18.4 °F - -23.8 °F 76% 30.58 in - Calm Calm - N/A   Clear
10:15 AM -16.6 °F - -22.0 °F 76% 30.58 in 10.0 mi Calm Calm - N/A   Clear
10:35 AM -16.6 °F - -22.0 °F 76% 30.57 in 10.0 mi Calm Calm - N/A   Clear
10:55 AM -14.8 °F - -22.0 °F 70% 30.56 in 10.0 mi Calm Calm - N/A   Clear
11:15 AM -13.0 °F - -20.2 °F 70% 30.55 in 10.0 mi Calm Calm - N/A   Clear
11:35 AM -9.4 °F -20.9 °F -18.4 °F 65% 30.54 in - SW 4.6 mph - N/A   Clear
11:55 AM -9.4 °F -18.6 °F -18.4 °F 65% 30.53 in - SW 3.5 mph - N/A   Clear
12:15 PM -7.6 °F - -16.6 °F 65% 30.51 in - Calm Calm - N/A   Clear
12:35 PM -7.6 °F -16.5 °F -16.6 °F 65% 30.51 in - SE 3.5 mph - N/A   Clear
12:55 PM -5.8 °F -14.5 °F -14.8 °F 65% 30.50 in - SSE 3.5 mph - N/A   Clear
1:15 PM -4.0 °F -19.0 °F -13.0 °F 65% 30.49 in - SSW 8.1 mph - N/A   Clear
1:35 PM -4.0 °F -19.0 °F -13.0 °F 65% 30.49 in - SSW 8.1 mph - N/A   Clear
1:55 PM -4.0 °F -19.0 °F -13.0 °F 65% 30.48 in - SSW 8.1 mph - N/A   Clear
2:15 PM -4.0 °F -16.3 °F -13.0 °F 65% 30.48 in - SSW 5.8 mph - N/A   Clear
2:35 PM -4.0 °F -16.3 °F -13.0 °F 65% 30.48 in - South 5.8 mph - N/A   Clear
2:55 PM -4.0 °F -16.3 °F -13.0 °F 65% 30.46 in - South 5.8 mph - N/A   Clear
3:15 PM -4.0 °F -19.0 °F -13.0 °F 65% 30.47 in - SSW 8.1 mph - N/A   Clear
3:35 PM -4.0 °F -16.3 °F -14.8 °F 60% 30.46 in 10.0 mi SSW 5.8 mph - N/A   Clear
3:55 PM -5.8 °F -18.4 °F -14.8 °F 65% 30.46 in 10.0 mi SSW 5.8 mph - N/A   Clear
4:15 PM -7.6 °F -18.8 °F -16.6 °F 65% 30.46 in - SSW 4.6 mph - N/A   Clear
4:35 PM -7.6 °F -22.1 °F -16.6 °F 65% 30.45 in - SSW 6.9 mph - N/A   Clear
4:55 PM -9.4 °F -22.7 °F -16.6 °F 71% 30.44 in - South 5.8 mph - N/A   Clear
5:15 PM -9.4 °F -24.3 °F -16.6 °F 71% 30.43 in - South 6.9 mph - N/A   Clear
5:35 PM -11.2 °F -24.8 °F -18.4 °F 70% 30.41 in - SSE 5.8 mph - N/A   Clear
5:55 PM -11.2 °F -24.8 °F -18.4 °F 70% 30.40 in - SSE 5.8 mph - N/A   Clear
6:15 PM -11.2 °F -26.4 °F -18.4 °F 70% 30.40 in - South 6.9 mph - N/A   Clear
6:35 PM -11.2 °F -27.8 °F -18.4 °F 70% 30.39 in - South 8.1 mph - N/A   Clear
6:55 PM -11.2 °F -27.8 °F -18.4 °F 70% 30.38 in - South 8.1 mph - N/A   Clear
7:15 PM -11.2 °F -26.4 °F -18.4 °F 70% 30.37 in - South 6.9 mph - N/A   Clear
7:35 PM -11.2 °F -24.8 °F -18.4 °F 70% 30.36 in - South 5.8 mph - N/A   Clear
7:55 PM -11.2 °F -24.8 °F -18.4 °F 70% 30.36 in - South 5.8 mph - N/A   Clear
8:15 PM -13.0 °F -30.0 °F -18.4 °F 77% 30.35 in - SSE 8.1 mph - N/A   Clear
8:35 PM -13.0 °F -27.0 °F -18.4 °F 77% 30.34 in - SSE 5.8 mph - N/A   Clear
8:55 PM -13.0 °F -22.7 °F -20.2 °F 70% 30.33 in - SSE 3.5 mph - N/A   Clear
9:15 PM -13.0 °F -25.1 °F -18.4 °F 77% 30.33 in - SSE 4.6 mph - N/A   Clear
9:35 PM -13.0 °F -28.6 °F -18.4 °F 77% 30.31 in - SSE 6.9 mph - N/A   Clear
9:55 PM -13.0 °F -31.3 °F -18.4 °F 77% 30.29 in - SE 9.2 mph - N/A   Clear
10:15 PM -13.0 °F -30.0 °F -18.4 °F 77% 30.28 in 10.0 mi SSE 8.1 mph - N/A   Clear
10:35 PM - - - N/A% 30.26 in - SSE 9.2 mph - N/A   Unknown
10:55 PM -9.4 °F -31.4 °F -16.6 °F 71% 30.25 in - SSE 15.0 mph - N/A   Clear
11:15 PM -9.4 °F -31.4 °F -16.6 °F 71% 30.23 in 10.0 mi SSE 15.0 mph - N/A   Clear
11:35 PM -9.4 °F -29.8 °F -16.6 °F 71% 30.21 in 10.0 mi SE 12.7 mph - N/A   Clear
11:55 PM -9.4 °F -30.6 °F -14.8 °F 77% 30.20 in 10.0 mi SSE 13.8 mph - N/A   Clear